• In Deutschland
  • Länderverzeichnis
  • Für 7 Tage
  • Wassertemperatur
  • Satellitenkarten
  • Wetterkarte
  • Widgets
  • user-avatar
    Anmelden

    Stündliche Wetter Berat

    Heute, 17 Juli, Dienstag

    Zeit Temperatur Niederschläge Wind Luftdruck Luftfeuchtigkeit
    00:00 +24°C° 0 mm 2 m/S 742 mmHg 61%
    01:00 +24°C° 0 mm 2 m/S 741 mmHg 61%
    02:00 +24°C° 0,1 mm 2 m/S 741 mmHg 62%
    03:00 +24°C° 0,1 mm 3 m/S 741 mmHg 62%
    04:00 +22°C° 0,1 mm 3 m/S 741 mmHg 63%
    05:00 +25°C° 0,1 mm 3 m/S 741 mmHg 61%
    06:00 +27°C° 0,1 mm 3 m/S 741 mmHg 60%
    07:00 +28°C° 0,1 mm 3 m/S 740 mmHg 58%
    08:00 +30°C° 0,1 mm 4 m/S 740 mmHg 53%
    09:00 +32°C° 0,1 mm 4 m/S 740 mmHg 49%
    10:00 +34°C° 0,1 mm 5 m/S 740 mmHg 44%
    11:00 +34°C° 0,1 mm 5 m/S 739 mmHg 44%
    12:00 +34°C° 0,1 mm 6 m/S 739 mmHg 45%
    13:00 +34°C° 0,1 mm 6 m/S 739 mmHg 45%
    14:00 +33°C° 0,3 mm 5 m/S 739 mmHg 50%
    15:00 +32°C° 0,3 mm 5 m/S 739 mmHg 54%
    16:00 +30°C° 0,3 mm 4 m/S 739 mmHg 58%
    17:00 +28°C° 0,1 mm 4 m/S 739 mmHg 66%
    18:00 +27°C° 0,1 mm 3 m/S 739 mmHg 73%
    19:00 +25°C° 0,1 mm 3 m/S 739 mmHg 80%
    20:00 +24°C° 0 mm 3 m/S 739 mmHg 84%
    21:00 +23°C° 0 mm 2 m/S 740 mmHg 88%
    22:00 +21°C° 0 mm 2 m/S 740 mmHg 92%
    23:00 +21°C° 0,1 mm 2 m/S 740 mmHg 92%

    Morgen, 18 Juli, Mittwoch

    Zeit Temperatur Niederschläge Wind Luftdruck Luftfeuchtigkeit
    00:00 +22°C° 0,1 mm 1 m/S 740 mmHg 93%
    01:00 +21°C° 0,1 mm 1 m/S 740 mmHg 93%
    02:00 +21°C° 0 mm 1 m/S 740 mmHg 93%
    03:00 +21°C° 0 mm 1 m/S 740 mmHg 93%
    04:00 +20°C° 0 mm 2 m/S 740 mmHg 92%
    05:00 +22°C° 0 mm 1 m/S 740 mmHg 86%
    06:00 +24°C° 0 mm 1 m/S 741 mmHg 79%
    07:00 +25°C° 0 mm 1 m/S 741 mmHg 72%
    08:00 +27°C° 0 mm 2 m/S 741 mmHg 65%
    09:00 +28°C° 0 mm 2 m/S 741 mmHg 57%
    10:00 +30°C° 0 mm 3 m/S 741 mmHg 50%
    11:00 +31°C° 0 mm 3 m/S 741 mmHg 48%
    12:00 +32°C° 0 mm 4 m/S 741 mmHg 45%
    13:00 +33°C° 0 mm 5 m/S 741 mmHg 43%
    14:00 +32°C° 0 mm 5 m/S 741 mmHg 44%
    15:00 +32°C° 0 mm 5 m/S 740 mmHg 46%
    16:00 +30°C° 0 mm 5 m/S 740 mmHg 48%
    17:00 +28°C° 0 mm 4 m/S 740 mmHg 55%
    18:00 +27°C° 0 mm 3 m/S 741 mmHg 63%
    19:00 +25°C° 0 mm 3 m/S 741 mmHg 70%
    20:00 +24°C° 0 mm 2 m/S 741 mmHg 73%
    21:00 +23°C° 0 mm 2 m/S 741 mmHg 76%
    22:00 +22°C° 0 mm 1 m/S 742 mmHg 79%
    23:00 +22°C° 0 mm 1 m/S 742 mmHg 79%

    übermorgen, 19 Juli, Donnerstag

    Zeit Temperatur Niederschläge Wind Luftdruck Luftfeuchtigkeit
    00:00 +22°C° 0 mm 1 m/S 742 mmHg 78%
    01:00 +21°C° 0 mm 1 m/S 741 mmHg 78%
    02:00 +21°C° 0 mm 1 m/S 741 mmHg 77%
    03:00 +21°C° 0 mm 1 m/S 741 mmHg 77%
    04:00 +21°C° 0 mm 1 m/S 741 mmHg 76%
    05:00 +23°C° 0 mm 1 m/S 741 mmHg 70%
    06:00 +25°C° 0 mm 1 m/S 741 mmHg 64%
    07:00 +26°C° 0 mm 1 m/S 741 mmHg 58%
    08:00 +28°C° 0 mm 2 m/S 741 mmHg 53%
    09:00 +29°C° 0 mm 3 m/S 742 mmHg 48%
    10:00 +31°C° 0 mm 3 m/S 742 mmHg 43%
    11:00 +32°C° 0 mm 4 m/S 741 mmHg 42%
    12:00 +33°C° 0 mm 5 m/S 741 mmHg 42%
    13:00 +33°C° 0 mm 5 m/S 741 mmHg 41%
    14:00 +33°C° 0 mm 5 m/S 741 mmHg 43%
    15:00 +32°C° 0 mm 5 m/S 741 mmHg 45%
    16:00 +32°C° 0 mm 5 m/S 741 mmHg 47%
    17:00 +29°C° 0 mm 4 m/S 741 mmHg 54%
    18:00 +27°C° 0 mm 3 m/S 741 mmHg 61%
    19:00 +25°C° 0 mm 2 m/S 741 mmHg 68%
    20:00 +24°C° 0 mm 2 m/S 742 mmHg 70%
    21:00 +23°C° 0 mm 1 m/S 742 mmHg 73%
    22:00 +22°C° 0 mm 1 m/S 742 mmHg 75%
    23:00 +22°C° 0 mm 1 m/S 742 mmHg 74%

    20 Juli, Freitag

    Zeit Temperatur Niederschläge Wind Luftdruck Luftfeuchtigkeit
    00:00 +22°C° 0 mm 1 m/S 742 mmHg 73%
    01:00 +22°C° 0 mm 1 m/S 742 mmHg 72%
    02:00 +21°C° 0 mm 1 m/S 742 mmHg 73%
    03:00 +21°C° 0 mm 1 m/S 742 mmHg 73%
    04:00 +21°C° 0 mm 1 m/S 742 mmHg 74%
    05:00 +23°C° 0 mm 1 m/S 742 mmHg 70%
    06:00 +25°C° 0 mm 1 m/S 742 mmHg 65%
    07:00 +26°C° 0 mm 1 m/S 742 mmHg 60%
    08:00 +28°C° 0 mm 2 m/S 742 mmHg 56%
    09:00 +29°C° 0 mm 2 m/S 742 mmHg 51%
    10:00 +31°C° 0 mm 3 m/S 742 mmHg 46%
    11:00 +31°C° 0 mm 3 m/S 742 mmHg 46%
    12:00 +33°C° 0 mm 4 m/S 742 mmHg 45%
    13:00 +33°C° 0 mm 4 m/S 742 mmHg 45%
    14:00 +33°C° 0 mm 4 m/S 742 mmHg 46%
    15:00 +33°C° 0 mm 4 m/S 741 mmHg 47%
    16:00 +32°C° 0 mm 4 m/S 741 mmHg 49%
    17:00 +29°C° 0 mm 4 m/S 742 mmHg 54%
    18:00 +27°C° 0 mm 3 m/S 742 mmHg 60%
    19:00 +26°C° 0 mm 2 m/S 742 mmHg 66%
    20:00 +25°C° 0 mm 2 m/S 742 mmHg 68%
    21:00 +24°C° 0 mm 2 m/S 742 mmHg 69%
    22:00 +23°C° 0 mm 1 m/S 743 mmHg 71%
    23:00 +23°C° 0 mm 1 m/S 743 mmHg 71%

    21 Juli, Samstag

    Zeit Temperatur Niederschläge Wind Luftdruck Luftfeuchtigkeit
    00:00 +23°C° 0 mm 1 m/S 742 mmHg 71%
    01:00 +22°C° 0 mm 1 m/S 742 mmHg 71%
    02:00 +22°C° 0 mm 1 m/S 742 mmHg 71%
    03:00 +22°C° 0 mm 1 m/S 742 mmHg 70%
    04:00 +22°C° 0 mm 1 m/S 742 mmHg 70%
    05:00 +24°C° 0 mm 1 m/S 742 mmHg 65%
    06:00 +25°C° 0 mm 1 m/S 742 mmHg 59%
    07:00 +27°C° 0 mm 1 m/S 743 mmHg 54%
    08:00 +29°C° 0 mm 1 m/S 743 mmHg 48%
    09:00 +31°C° 0 mm 2 m/S 743 mmHg 42%
    10:00 +32°C° 0 mm 2 m/S 743 mmHg 35%
    11:00 +34°C° 0 mm 3 m/S 742 mmHg 34%
    12:00 +35°C° 0 mm 3 m/S 742 mmHg 33%
    13:00 +35°C° 0 mm 4 m/S 742 mmHg 32%
    14:00 +35°C° 0 mm 3 m/S 742 mmHg 33%
    15:00 +35°C° 0 mm 3 m/S 742 mmHg 34%
    16:00 +35°C° 0 mm 3 m/S 741 mmHg 35%
    17:00 +31°C° 0 mm 2 m/S 741 mmHg 41%
    18:00 +29°C° 0 mm 1 m/S 741 mmHg 48%
    19:00 +27°C° 0 mm 1 m/S 741 mmHg 54%
    20:00 +26°C° 0 mm 1 m/S 741 mmHg 54%
    21:00 +25°C° 0 mm 1 m/S 741 mmHg 54%
    22:00 +25°C° 0 mm 1 m/S 742 mmHg 55%
    23:00 +25°C° 0 mm 1 m/S 741 mmHg 54%

    22 Juli, Sonntag

    Zeit Temperatur Niederschläge Wind Luftdruck Luftfeuchtigkeit
    00:00 +24°C° 0 mm 1 m/S 741 mmHg 52%
    01:00 +24°C° 0 mm 2 m/S 741 mmHg 51%
    02:00 +24°C° 0 mm 1 m/S 741 mmHg 51%
    03:00 +24°C° 0 mm 1 m/S 740 mmHg 50%
    04:00 +24°C° 0 mm 1 m/S 740 mmHg 50%
    05:00 +25°C° 0 mm 1 m/S 740 mmHg 48%
    06:00 +27°C° 0 mm 1 m/S 740 mmHg 46%
    07:00 +29°C° 0 mm 1 m/S 740 mmHg 44%
    08:00 +31°C° 0 mm 2 m/S 740 mmHg 41%
    09:00 +32°C° 0 mm 2 m/S 740 mmHg 39%
    10:00 +34°C° 0 mm 2 m/S 740 mmHg 36%
    11:00 +35°C° 0 mm 3 m/S 739 mmHg 36%
    12:00 +35°C° 0 mm 3 m/S 739 mmHg 36%
    13:00 +36°C° 0 mm 3 m/S 738 mmHg 36%
    14:00 +35°C° 0 mm 3 m/S 738 mmHg 38%
    15:00 +35°C° 0 mm 4 m/S 738 mmHg 40%
    16:00 +34°C° 0 mm 4 m/S 738 mmHg 42%
    17:00 +31°C° 0,2 mm 3 m/S 738 mmHg 51%
    18:00 +29°C° 0,2 mm 3 m/S 738 mmHg 60%
    19:00 +27°C° 0,2 mm 2 m/S 738 mmHg 69%
    20:00 +26°C° 0,1 mm 2 m/S 738 mmHg 72%
    21:00 +25°C° 0,1 mm 1 m/S 738 mmHg 75%
    22:00 +24°C° 0,1 mm 1 m/S 738 mmHg 78%
    23:00 +23°C° 0 mm 1 m/S 738 mmHg 77%
    Mehr zeigen